Weather History for KBML - January, 2004

Change the Weather History Date:

Thursday, January 8, 2004

  Actual Average Record
Temperature  
Mean Temperature -16 °F -  
Max Temperature -5 °F 22 °F 59 °F (2008)
Min Temperature -27 °F 2 °F -27 °F (2004)
Degree Days  
Heating Degree Days 80    
Moisture  
Dew Point -26 °F    
Average Humidity 49    
Maximum Humidity 69    
Minimum Humidity 34    
Precipitation  
Precipitation 0.00 in - - ()
Sea Level Pressure  
Sea Level Pressure 30.16 in    
Wind  
Wind Speed 8 mph (WNW)    
Max Wind Speed 16 mph    
Max Gust Speed 29 mph    
Visibility 10 miles    
Events      
Averages and records for this station are not official NWS values.
T = Trace of Precipitation, MM = Missing Value Source: NWS Daily Summary

Daily Weather History Graph

Daily Weather History Graph

Search for Another Location

Airport or City:

Trip Planner

Search our weather history database for the weather conditions in past years. The results will help you decide how hot, cold, wet, or windy it might be!

Date:

Astronomy

Jan. 08, 2004 Rise Set
Actual Time 7:20 AM EST 4:21 PM EST
Civil Twilight 6:47 AM EST 4:54 PM EST
Nautical Twilight 6:11 AM EST 5:31 PM EST
Astronomical Twilight 5:36 AM EST 6:06 PM EST
Moon 5:11 PM EST (1/8) 8:28 AM EST (1/8)
Length of Visible Light 10h 06m
Length of Day
9h 00m
Full, 99% of the Moon is Illuminated
Jan 8
Full
Jan 14
Last Quarter
Jan 21
New
Jan 29
First Quarter
Feb 6
Full

Hourly Weather History & Observations

Time (EST) Temp. Windchill Dew Point Humidity Pressure Visibility Wind Dir Wind Speed Gust Speed Precip Events Conditions
12:33 AM -7.6 °F -25.7 °F -20.2 °F 54% 29.93 in 10.0 mi WNW 10.4 mph - N/A   Scattered Clouds
12:52 AM -7.1 °F -22.8 °F -20.0 °F 53% 30.03 in 10.0 mi WNW 8.1 mph - N/A   Clear
1:52 AM -9.0 °F -26.4 °F -22.0 °F 53% 30.07 in 10.0 mi WNW 9.2 mph - N/A   Clear
2:52 AM -9.9 °F -26.3 °F -23.1 °F 52% 30.09 in 10.0 mi WNW 8.1 mph 19.6 mph N/A   Partly Cloudy
3:45 AM -11.2 °F -32.1 °F -23.8 °F 54% 30.00 in 10.0 mi WNW 12.7 mph 18.4 mph N/A   Overcast
3:52 AM -11.0 °F -32.7 °F -23.1 °F 55% 30.10 in 10.0 mi WNW 13.8 mph 21.9 mph N/A   Overcast
4:31 AM -11.2 °F -30.1 °F -25.6 °F 49% 30.00 in 10.0 mi West 10.4 mph 24.2 mph N/A   Scattered Clouds
4:52 AM -11.9 °F -32.0 °F -24.0 °F 55% 30.10 in 10.0 mi WNW 11.5 mph 21.9 mph N/A   Clear
5:52 AM -13.0 °F -28.6 °F -25.1 °F 55% 30.13 in 10.0 mi Variable 6.9 mph 18.4 mph N/A   Clear
6:52 AM -14.1 °F - -25.1 °F 58% 30.15 in 10.0 mi Calm Calm - N/A   Clear
7:52 AM -16.1 °F - -27.0 °F 58% 30.16 in 10.0 mi Calm Calm - N/A   Clear
8:52 AM -13.0 °F -22.7 °F -27.9 °F 47% 30.18 in 10.0 mi Variable 3.5 mph - N/A   Clear
9:52 AM -11.0 °F -22.8 °F -27.0 °F 45% 30.18 in 10.0 mi Variable 4.6 mph - N/A   Clear
10:52 AM -8.0 °F -16.9 °F -27.9 °F 37% 30.17 in 10.0 mi Variable 3.5 mph - N/A   Clear
11:52 AM -6.0 °F -22.6 °F -27.9 °F 34% 30.17 in 10.0 mi WSW 9.2 mph 24.2 mph 0.00 in   Clear
12:52 PM -5.1 °F -25.1 °F -27.0 °F 34% 30.15 in 10.0 mi WSW 13.8 mph 19.6 mph 0.00 in   Clear
1:52 PM -5.1 °F -26.6 °F -26.0 °F 36% 30.15 in 10.0 mi West 16.1 mph 28.8 mph 0.00 in   Clear
2:52 PM -5.1 °F -24.3 °F -27.0 °F 34% 30.18 in 10.0 mi West 12.7 mph 20.7 mph 0.00 in   Clear
3:52 PM -6.0 °F -20.1 °F -27.0 °F 36% 30.19 in 10.0 mi WNW 6.9 mph - 0.00 in   Clear
4:52 PM -8.0 °F -22.5 °F -27.0 °F 39% 30.22 in 10.0 mi NW 6.9 mph - N/A   Clear
5:52 PM -9.0 °F -23.8 °F -27.0 °F 41% 30.25 in 10.0 mi Variable 6.9 mph - N/A   Clear
6:52 PM -9.9 °F -27.5 °F -26.0 °F 45% 30.26 in 10.0 mi WNW 9.2 mph 17.3 mph N/A   Clear
7:52 PM -11.9 °F -27.3 °F -26.0 °F 50% 30.28 in 10.0 mi West 6.9 mph - N/A   Clear
8:52 PM -15.0 °F - -27.0 °F 55% 30.29 in 10.0 mi Calm Calm - N/A   Clear
9:52 PM -20.9 °F - -29.0 °F 66% 30.31 in 10.0 mi Calm Calm - N/A   Clear
10:52 PM -26.0 °F - -33.0 °F 69% 30.31 in 10.0 mi Calm Calm - N/A   Clear
11:52 PM -27.0 °F - -34.1 °F 69% 30.30 in 10.0 mi Calm Calm - N/A   Clear